Time,TemperatureF,DewpointF,PressureIn,WindDirection,WindDirectionDegrees,WindSpeedMPH,WindSpeedGustMPH,Humidity,HourlyPrecipIn,Conditions,Clouds,dailyrainin,SoftwareType,DateUTC
2013-03-10 00:04:00,62.8,59.2,29.90,East,99,0.0,2.0,88,0.00,,---,0.00,VWS V14.01,2013-03-10 06:04:00,
2013-03-10 00:06:00,62.8,59.2,29.90,East,99,0.0,2.0,88,0.00,,---,0.00,VWS V14.01,2013-03-10 06:06:00,
2013-03-10 00:09:00,62.7,59.1,29.90,East,99,0.0,1.0,88,0.00,,---,0.00,VWS V14.01,2013-03-10 06:09:00,
2013-03-10 00:14:00,62.7,59.1,29.91,East,99,1.0,1.0,88,0.00,,---,0.00,VWS V14.01,2013-03-10 06:14:00,
2013-03-10 00:20:00,62.6,59.0,29.91,East,99,0.0,1.0,88,0.00,,---,0.00,VWS V14.01,2013-03-10 06:20:00,
2013-03-10 00:25:00,62.3,59.0,29.91,East,99,0.0,1.0,89,0.00,,---,0.00,VWS V14.01,2013-03-10 06:25:00,
2013-03-10 00:30:00,62.2,58.9,29.90,East,99,1.0,2.0,89,0.00,,---,0.00,VWS V14.01,2013-03-10 06:30:00,
2013-03-10 00:35:00,62.0,58.7,29.90,East,99,0.0,2.0,89,0.00,,---,0.00,VWS V14.01,2013-03-10 06:35:00,
2013-03-10 00:36:00,61.9,58.6,29.90,East,99,0.0,2.0,89,0.00,,---,0.00,VWS V14.01,2013-03-10 06:36:00,
2013-03-10 00:40:00,61.8,58.8,29.90,East,99,1.0,1.0,90,0.00,,---,0.00,VWS V14.01,2013-03-10 06:40:00,
2013-03-10 00:45:00,61.7,58.7,29.91,East,99,0.0,1.0,90,0.00,,---,0.00,VWS V14.01,2013-03-10 06:45:00,
2013-03-10 00:50:00,61.3,58.3,29.91,East,99,0.0,1.0,90,0.00,,---,0.00,VWS V14.01,2013-03-10 06:50:00,
2013-03-10 00:53:00,60.5,58.5,29.89,East,99,1.0,2.0,93,0.00,,---,0.00,VWS V14.01,2013-03-10 06:53:00,
2013-03-10 00:55:00,61.0,58.4,29.91,East,99,0.0,1.0,91,0.00,,---,0.00,VWS V14.01,2013-03-10 06:55:00,
2013-03-10 00:58:00,60.5,58.5,29.89,East,99,1.0,3.0,93,0.00,,---,0.00,VWS V14.01,2013-03-10 06:58:00,
2013-03-10 01:00:00,61.0,58.7,29.91,East,99,0.0,1.0,92,0.00,,---,0.00,VWS V14.01,2013-03-10 07:00:00,
2013-03-10 01:05:00,60.8,58.5,29.91,East,99,0.0,1.0,92,0.00,,---,0.00,VWS V14.01,2013-03-10 07:05:00,
2013-03-10 01:06:00,60.8,58.5,29.91,East,99,0.0,1.0,92,0.00,,---,0.00,VWS V14.01,2013-03-10 07:06:00,
2013-03-10 01:10:00,60.9,58.6,29.91,East,99,0.0,0.0,92,0.00,,---,0.00,VWS V14.01,2013-03-10 07:10:00,
2013-03-10 01:15:00,60.8,58.5,29.91,East,99,0.0,0.0,92,0.00,,---,0.00,VWS V14.01,2013-03-10 07:15:00,
2013-03-10 01:20:00,60.8,58.5,29.91,East,99,0.0,0.0,92,0.00,,---,0.00,VWS V14.01,2013-03-10 07:20:00,
2013-03-10 01:25:00,60.7,58.4,29.91,East,99,0.0,2.0,92,0.00,,---,0.00,VWS V14.01,2013-03-10 07:25:00,
2013-03-10 01:30:00,60.7,58.4,29.90,East,99,0.0,2.0,92,0.00,,---,0.00,VWS V14.01,2013-03-10 07:30:00,
2013-03-10 01:35:00,60.7,58.4,29.90,East,99,0.0,2.0,92,0.00,,---,0.00,VWS V14.01,2013-03-10 07:35:00,
2013-03-10 01:36:00,60.7,58.7,29.90,East,99,0.0,2.0,93,0.00,,---,0.00,VWS V14.01,2013-03-10 07:36:00,
2013-03-10 01:45:00,60.5,58.5,29.90,East,99,0.0,0.0,93,0.00,,---,0.00,VWS V14.01,2013-03-10 07:45:00,
2013-03-10 01:50:00,60.5,58.5,29.89,East,99,0.0,0.0,93,0.00,,---,0.00,VWS V14.01,2013-03-10 07:50:00,
2013-03-10 01:55:00,60.4,58.4,29.89,East,99,0.0,2.0,93,0.00,,---,0.00,VWS V14.01,2013-03-10 07:55:00,
2013-03-10 03:06:00,60.6,58.6,29.89,East,99,1.0,3.0,93,0.00,,---,0.00,VWS V14.01,2013-03-10 08:06:00,
2013-03-10 03:10:00,60.6,58.6,29.87,ESE,103,2.0,5.0,93,0.00,,---,0.00,VWS V14.01,2013-03-10 08:10:00,
2013-03-10 03:15:00,60.9,59.2,29.87,ESE,123,3.0,5.0,94,0.00,,---,0.00,VWS V14.01,2013-03-10 08:15:00,
2013-03-10 03:20:00,61.4,59.4,29.86,SE,124,1.0,5.0,93,0.00,,---,0.00,VWS V14.01,2013-03-10 08:20:00,
2013-03-10 03:25:00,61.8,59.8,29.86,SE,126,1.0,5.0,93,0.00,,---,0.00,VWS V14.01,2013-03-10 08:25:00,
2013-03-10 03:30:00,62.1,59.8,29.85,SE,125,1.0,5.0,92,0.00,,---,0.00,VWS V14.01,2013-03-10 08:30:00,
2013-03-10 03:35:00,61.9,59.5,29.85,SE,126,3.0,5.0,92,0.00,,---,0.00,VWS V14.01,2013-03-10 08:35:00,
2013-03-10 03:40:00,62.1,59.8,29.85,ESE,113,2.0,3.0,92,0.00,,---,0.00,VWS V14.01,2013-03-10 08:40:00,
2013-03-10 03:45:00,62.4,60.0,29.84,ESE,114,2.0,3.0,92,0.00,,---,0.00,VWS V14.01,2013-03-10 08:45:00,
2013-03-10 03:50:00,62.5,60.2,29.84,ESE,114,0.0,3.0,92,0.00,,---,0.00,VWS V14.01,2013-03-10 08:50:00,
2013-03-10 03:55:00,62.5,60.2,29.84,ESE,113,3.0,3.0,92,0.00,,---,0.00,VWS V14.01,2013-03-10 08:55:00,
2013-03-10 04:00:00,62.6,60.2,29.84,SE,131,2.0,5.0,92,0.00,,---,0.00,VWS V14.01,2013-03-10 09:00:00,
2013-03-10 04:05:00,62.6,59.9,29.83,ESE,111,2.0,5.0,91,0.00,,---,0.00,VWS V14.01,2013-03-10 09:05:00,
2013-03-10 04:06:00,62.6,59.9,29.83,ESE,111,2.0,5.0,91,0.00,,---,0.00,VWS V14.01,2013-03-10 09:06:00,
2013-03-10 04:10:00,62.5,59.8,29.83,SE,124,3.0,4.0,91,0.00,,---,0.00,VWS V14.01,2013-03-10 09:10:00,
2013-03-10 04:15:00,62.4,59.7,29.83,SE,126,2.0,4.0,91,0.00,,---,0.00,VWS V14.01,2013-03-10 09:15:00,
2013-03-10 04:20:00,62.3,59.6,29.83,SE,128,2.0,4.0,91,0.00,,---,0.00,VWS V14.01,2013-03-10 09:20:00,
2013-03-10 04:25:00,62.4,60.0,29.83,ESE,119,2.0,6.0,92,0.00,,---,0.00,VWS V14.01,2013-03-10 09:25:00,
2013-03-10 04:30:00,62.2,59.5,29.84,ESE,113,2.0,6.0,91,0.00,,---,0.00,VWS V14.01,2013-03-10 09:30:00,
2013-03-10 04:35:00,62.0,59.3,29.83,ESE,109,2.0,6.0,91,0.00,,---,0.00,VWS V14.01,2013-03-10 09:35:00,
2013-03-10 04:36:00,62.0,59.7,29.83,ESE,111,2.0,6.0,92,0.00,,---,0.00,VWS V14.01,2013-03-10 09:36:00,
2013-03-10 04:40:00,62.0,59.7,29.83,SE,128,0.0,3.0,92,0.00,,---,0.00,VWS V14.01,2013-03-10 09:40:00,
2013-03-10 04:45:00,62.0,59.3,29.83,ESE,119,0.0,3.0,91,0.00,,---,0.00,VWS V14.01,2013-03-10 09:45:00,
2013-03-10 04:50:00,61.8,59.5,29.83,East,98,1.0,3.0,92,0.00,,---,0.00,VWS V14.01,2013-03-10 09:50:00,
2013-03-10 04:55:00,61.6,59.3,29.84,East,98,0.0,3.0,92,0.00,,---,0.00,VWS V14.01,2013-03-10 09:55:00,
2013-03-10 05:00:00,61.6,59.6,29.84,ENE,65,0.0,4.0,93,0.00,,---,0.00,VWS V14.01,2013-03-10 10:00:00,
2013-03-10 05:05:00,61.8,59.8,29.84,East,101,1.0,4.0,93,0.00,,---,0.00,VWS V14.01,2013-03-10 10:05:00,
2013-03-10 05:06:00,61.8,59.8,29.84,East,101,0.0,4.0,93,0.00,,---,0.00,VWS V14.01,2013-03-10 10:06:00,
2013-03-10 05:10:00,62.0,60.0,29.84,SSE,148,3.0,3.0,93,0.00,,---,0.00,VWS V14.01,2013-03-10 10:10:00,
2013-03-10 05:15:00,62.1,59.8,29.83,SE,133,1.0,3.0,92,0.00,,---,0.00,VWS V14.01,2013-03-10 10:15:00,
2013-03-10 05:20:00,62.2,60.2,29.83,ESE,123,1.0,3.0,93,0.00,,---,0.00,VWS V14.01,2013-03-10 10:20:00,
2013-03-10 05:25:00,62.4,60.3,29.84,NNW,345,1.0,3.0,93,0.00,,---,0.00,VWS V14.01,2013-03-10 10:25:00,
2013-03-10 05:30:00,62.7,60.3,29.84,East,92,2.0,5.0,92,0.00,,---,0.00,VWS V14.01,2013-03-10 10:30:00,
2013-03-10 05:35:00,62.7,60.3,29.84,SE,129,1.0,5.0,92,0.00,,---,0.00,VWS V14.01,2013-03-10 10:35:00,
2013-03-10 05:36:00,62.7,60.3,29.84,SE,129,1.0,5.0,92,0.00,,---,0.00,VWS V14.01,2013-03-10 10:36:00,
2013-03-10 05:40:00,62.6,60.2,29.84,SE,125,1.0,3.0,92,0.00,,---,0.00,VWS V14.01,2013-03-10 10:40:00,
2013-03-10 05:45:00,62.6,60.2,29.83,ESE,105,2.0,3.0,92,0.00,,---,0.00,VWS V14.01,2013-03-10 10:45:00,
2013-03-10 05:50:00,62.6,60.2,29.83,ESE,117,1.0,3.0,92,0.00,,---,0.00,VWS V14.01,2013-03-10 10:50:00,
2013-03-10 05:55:00,62.8,60.5,29.83,SE,130,1.0,4.0,92,0.00,,---,0.00,VWS V14.01,2013-03-10 10:55:00,
2013-03-10 06:00:00,62.9,60.5,29.82,SE,132,3.0,6.0,92,0.00,,---,0.00,VWS V14.01,2013-03-10 11:00:00,
2013-03-10 06:05:00,62.9,60.5,29.81,East,83,1.0,6.0,92,0.00,,---,0.00,VWS V14.01,2013-03-10 11:05:00,
2013-03-10 06:10:00,62.8,60.5,29.82,SE,139,0.0,4.0,92,0.00,,---,0.00,VWS V14.01,2013-03-10 11:10:00,
2013-03-10 06:15:00,62.7,60.3,29.82,SE,133,2.0,4.0,92,0.00,,---,0.00,VWS V14.01,2013-03-10 11:15:00,
2013-03-10 06:20:00,62.7,60.3,29.83,SE,132,2.0,4.0,92,0.00,,---,0.00,VWS V14.01,2013-03-10 11:20:00,
2013-03-10 06:25:00,62.6,60.2,29.83,ESE,112,1.0,5.0,92,0.00,,---,0.00,VWS V14.01,2013-03-10 11:25:00,
2013-03-10 06:30:00,62.5,60.2,29.83,ESE,112,1.0,5.0,92,0.00,,---,0.00,VWS V14.01,2013-03-10 11:30:00,
2013-03-10 06:35:00,62.4,60.0,29.83,South,178,0.0,5.0,92,0.00,,---,0.00,VWS V14.01,2013-03-10 11:35:00,
2013-03-10 06:40:00,62.4,60.0,29.83,SSE,158,0.0,2.0,92,0.00,,---,0.00,VWS V14.01,2013-03-10 11:40:00,
2013-03-10 06:46:00,62.5,60.2,29.83,ESE,111,2.0,3.0,92,0.00,,---,0.00,VWS V14.01,2013-03-10 11:46:00,
2013-03-10 06:51:00,62.4,60.0,29.83,SSE,150,0.0,3.0,92,0.00,,---,0.00,VWS V14.01,2013-03-10 11:51:00,
2013-03-10 06:56:00,62.5,60.2,29.83,SE,132,0.0,4.0,92,0.00,,---,0.00,VWS V14.01,2013-03-10 11:56:00,
2013-03-10 07:01:00,62.5,60.2,29.83,ESE,111,1.0,4.0,92,0.00,,---,0.00,VWS V14.01,2013-03-10 12:01:00,
2013-03-10 07:06:00,62.5,60.2,29.83,ESE,111,1.0,4.0,92,0.00,,---,0.00,VWS V14.01,2013-03-10 12:06:00,
2013-03-10 07:11:00,62.5,60.2,29.84,ESE,109,0.0,1.0,92,0.00,,---,0.00,VWS V14.01,2013-03-10 12:11:00,
2013-03-10 07:16:00,62.5,60.5,29.84,East,86,2.0,2.0,93,0.00,,---,0.00,VWS V14.01,2013-03-10 12:16:00,
2013-03-10 07:21:00,62.5,60.2,29.85,East,101,0.0,2.0,92,0.00,,---,0.00,VWS V14.01,2013-03-10 12:21:00,
2013-03-10 07:26:00,62.6,60.2,29.85,NE,35,0.0,2.0,92,0.00,,---,0.00,VWS V14.01,2013-03-10 12:26:00,
2013-03-10 07:31:00,62.5,60.2,29.85,ENE,62,0.0,2.0,92,0.00,,---,0.00,VWS V14.01,2013-03-10 12:31:00,
2013-03-10 07:36:00,62.5,60.2,29.86,ESE,105,0.0,2.0,92,0.00,,---,0.00,VWS V14.01,2013-03-10 12:36:00,
2013-03-10 07:46:00,62.5,60.5,29.86,ESE,105,0.0,2.0,93,0.00,,---,0.00,VWS V14.01,2013-03-10 12:46:00,
2013-03-10 07:51:00,62.5,60.2,29.86,ESE,105,0.0,2.0,92,0.00,,---,0.00,VWS V14.01,2013-03-10 12:51:00,
2013-03-10 07:56:00,62.5,60.5,29.86,ESE,105,2.0,2.0,93,0.00,,---,0.00,VWS V14.01,2013-03-10 12:56:00,
2013-03-10 08:01:00,62.6,60.5,29.86,ESE,105,2.0,3.0,93,0.00,,---,0.00,VWS V14.01,2013-03-10 13:01:00,
2013-03-10 08:06:00,62.6,60.5,29.85,ESE,109,3.0,4.0,93,0.00,,---,0.00,VWS V14.01,2013-03-10 13:06:00,
2013-03-10 08:16:00,62.6,60.5,29.86,East,92,1.0,5.0,93,0.00,,---,0.00,VWS V14.01,2013-03-10 13:16:00,
2013-03-10 08:21:00,62.5,60.5,29.86,SE,146,0.0,5.0,93,0.00,,---,0.00,VWS V14.01,2013-03-10 13:21:00,
2013-03-10 08:26:00,62.6,60.5,29.86,SE,134,0.0,5.0,93,0.00,,---,0.00,VWS V14.01,2013-03-10 13:26:00,
2013-03-10 08:31:00,62.7,60.7,29.86,ESE,109,3.0,5.0,93,0.00,,---,0.00,VWS V14.01,2013-03-10 13:31:00,
2013-03-10 08:36:00,62.9,60.8,29.86,East,92,1.0,5.0,93,0.00,,---,0.00,VWS V14.01,2013-03-10 13:36:00,
2013-03-10 08:41:00,63.1,61.0,29.85,ESE,111,2.0,5.0,93,0.00,,---,0.00,VWS V14.01,2013-03-10 13:41:00,
2013-03-10 08:46:00,63.1,61.0,29.85,East,93,0.0,5.0,93,0.00,,---,0.00,VWS V14.01,2013-03-10 13:46:00,
2013-03-10 08:51:00,63.2,61.2,29.86,ESE,118,0.0,5.0,93,0.00,,---,0.00,VWS V14.01,2013-03-10 13:51:00,
2013-03-10 08:56:00,63.2,61.2,29.86,NE,52,0.0,5.0,93,0.00,,---,0.00,VWS V14.01,2013-03-10 13:56:00,
2013-03-10 09:01:00,63.4,61.3,29.86,East,85,1.0,5.0,93,0.00,,---,0.00,VWS V14.01,2013-03-10 14:01:00,
2013-03-10 09:06:00,63.4,61.3,29.85,SE,136,1.0,5.0,93,0.00,,---,0.00,VWS V14.01,2013-03-10 14:06:00,
2013-03-10 09:16:00,63.6,61.2,29.85,NNE,13,2.0,6.0,92,0.00,,---,0.00,VWS V14.01,2013-03-10 14:16:00,
2013-03-10 09:21:00,63.7,61.3,29.85,SE,140,1.0,6.0,92,0.00,,---,0.00,VWS V14.01,2013-03-10 14:21:00,
2013-03-10 09:26:00,63.8,61.7,29.86,SSE,159,0.0,6.0,93,0.00,,---,0.00,VWS V14.01,2013-03-10 14:26:00,
2013-03-10 09:31:00,64.0,61.9,29.85,SE,142,0.0,6.0,93,0.00,,---,0.00,VWS V14.01,2013-03-10 14:31:00,
2013-03-10 09:36:00,64.4,62.3,29.85,ESE,105,2.0,6.0,93,0.00,,---,0.00,VWS V14.01,2013-03-10 14:36:00,
2013-03-10 09:41:00,65.1,62.7,29.86,East,100,5.0,6.0,92,0.00,,---,0.00,VWS V14.01,2013-03-10 14:41:00,
2013-03-10 09:46:00,65.7,63.0,29.86,SSE,162,0.0,7.0,91,0.00,,---,0.00,VWS V14.01,2013-03-10 14:46:00,
2013-03-10 09:51:00,66.4,63.4,29.85,ESE,119,0.0,7.0,90,0.00,,---,0.00,VWS V14.01,2013-03-10 14:51:00,
2013-03-10 09:56:00,66.8,63.5,29.85,SE,139,2.0,8.0,89,0.00,,---,0.00,VWS V14.01,2013-03-10 14:56:00,
2013-03-10 10:01:00,67.0,63.7,29.83,SE,137,3.0,8.0,89,0.00,,---,0.00,VWS V14.01,2013-03-10 15:01:00,
2013-03-10 10:06:00,67.2,63.5,29.83,East,82,2.0,9.0,88,0.00,,---,0.00,VWS V14.01,2013-03-10 15:06:00,
2013-03-10 10:11:00,67.4,63.7,29.82,ESE,121,3.0,9.0,88,0.00,,---,0.00,VWS V14.01,2013-03-10 15:11:00,
2013-03-10 10:16:00,67.5,63.5,29.83,ESE,121,3.0,9.0,87,0.00,,---,0.00,VWS V14.01,2013-03-10 15:16:00,
2013-03-10 10:21:00,67.6,63.6,29.83,NE,44,4.0,9.0,87,0.00,,---,0.00,VWS V14.01,2013-03-10 15:21:00,
2013-03-10 10:26:00,67.7,63.7,29.84,West,263,9.0,11.0,87,0.00,,---,0.00,VWS V14.01,2013-03-10 15:26:00,
2013-03-10 10:31:00,67.7,63.7,29.84,NE,42,2.0,11.0,87,0.00,,---,0.00,VWS V14.01,2013-03-10 15:31:00,
2013-03-10 10:36:00,67.8,63.5,29.84,SE,128,1.0,13.0,86,0.00,,---,0.00,VWS V14.01,2013-03-10 15:36:00,
2013-03-10 10:41:00,68.0,63.3,29.83,SSE,158,3.0,14.0,85,0.00,,---,0.00,VWS V14.01,2013-03-10 15:41:00,
2013-03-10 10:46:00,68.3,63.3,29.83,South,176,6.0,14.0,84,0.00,,---,0.00,VWS V14.01,2013-03-10 15:46:00,
2013-03-10 10:51:00,68.5,63.5,29.82,SSE,153,9.0,14.0,84,0.00,,---,0.00,VWS V14.01,2013-03-10 15:51:00,
2013-03-10 10:56:00,68.6,63.2,29.83,SE,126,1.0,14.0,83,0.00,,---,0.00,VWS V14.01,2013-03-10 15:56:00,
2013-03-10 11:01:00,68.8,63.4,29.82,SE,126,4.0,14.0,83,0.00,,---,0.00,VWS V14.01,2013-03-10 16:01:00,
2013-03-10 11:06:00,68.9,63.5,29.82,ESE,111,4.0,14.0,83,0.00,,---,0.00,VWS V14.01,2013-03-10 16:06:00,
2013-03-10 11:11:00,69.1,63.4,29.82,SE,128,0.0,6.0,82,0.00,,---,0.00,VWS V14.01,2013-03-10 16:11:00,
2013-03-10 11:16:00,69.3,63.2,29.82,North,5,1.0,6.0,81,0.00,,---,0.00,VWS V14.01,2013-03-10 16:16:00,
2013-03-10 11:22:00,69.4,63.3,29.82,SE,139,2.0,7.0,81,0.00,,---,0.00,VWS V14.01,2013-03-10 16:22:00,
2013-03-10 11:27:00,69.6,63.5,29.82,WSW,249,0.0,9.0,81,0.00,,---,0.00,VWS V14.01,2013-03-10 16:27:00,
2013-03-10 11:32:00,69.8,63.4,29.82,WSW,242,2.0,12.0,80,0.00,,---,0.00,VWS V14.01,2013-03-10 16:32:00,
2013-03-10 11:36:00,69.9,63.5,29.82,East,90,2.0,14.0,80,0.00,,---,0.00,VWS V14.01,2013-03-10 16:36:00,
2013-03-10 11:37:00,70.0,63.5,29.82,ENE,60,1.0,3.0,80,0.00,,---,0.00,VWS V14.01,2013-03-10 16:37:00,
2013-03-10 11:42:00,70.1,63.3,29.82,East,79,5.0,13.0,79,0.00,,---,0.00,VWS V14.01,2013-03-10 16:42:00,
2013-03-10 11:47:00,70.1,63.3,29.83,ESE,110,3.0,13.0,79,0.00,,---,0.00,VWS V14.01,2013-03-10 16:47:00,
2013-03-10 11:52:00,70.3,63.5,29.83,SSW,202,7.0,13.0,79,0.00,,---,0.00,VWS V14.01,2013-03-10 16:52:00,
2013-03-10 11:57:00,70.4,63.6,29.83,South,174,1.0,15.0,79,0.00,,---,0.00,VWS V14.01,2013-03-10 16:57:00,
2013-03-10 12:02:00,70.3,63.5,29.83,North,355,2.0,15.0,79,0.00,,---,0.00,VWS V14.01,2013-03-10 17:02:00,
2013-03-10 12:07:00,70.4,63.6,29.83,ENE,77,2.0,5.0,79,0.00,,---,0.00,VWS V14.01,2013-03-10 17:07:00,
2013-03-10 12:12:00,70.5,63.3,29.83,SSW,201,4.0,16.0,78,0.00,,---,0.00,VWS V14.01,2013-03-10 17:12:00,
2013-03-10 12:17:00,70.6,63.4,29.83,West,259,4.0,16.0,78,0.00,,---,0.00,VWS V14.01,2013-03-10 17:17:00,
2013-03-10 12:22:00,70.6,63.4,29.84,WNW,290,6.0,16.0,78,0.00,,---,0.00,VWS V14.01,2013-03-10 17:22:00,
2013-03-10 12:27:00,68.4,57.8,29.87,NNW,339,4.0,22.0,69,0.00,,---,0.00,VWS V14.01,2013-03-10 17:27:00,
2013-03-10 12:32:00,63.9,55.5,29.85,South,173,4.0,22.0,74,0.00,,---,0.00,VWS V14.01,2013-03-10 17:32:00,
2013-03-10 12:36:00,61.6,55.4,29.88,West,272,9.0,22.0,80,0.00,,---,0.00,VWS V14.01,2013-03-10 17:36:00,
2013-03-10 12:37:00,61.4,55.2,29.89,NW,306,9.0,16.0,80,0.00,,---,0.00,VWS V14.01,2013-03-10 17:37:00,
2013-03-10 12:42:00,59.8,54.6,29.88,WNW,300,8.0,16.0,83,0.03,,---,0.03,VWS V14.01,2013-03-10 17:42:00,
2013-03-10 12:47:00,58.3,53.8,29.88,North,350,2.0,16.0,85,0.03,,---,0.03,VWS V14.01,2013-03-10 17:47:00,
2013-03-10 12:52:00,56.9,53.7,29.87,NNW,338,3.0,16.0,89,0.04,,---,0.04,VWS V14.01,2013-03-10 17:52:00,
2013-03-10 12:57:00,56.1,53.2,29.90,WNW,289,5.0,16.0,90,0.04,,---,0.04,VWS V14.01,2013-03-10 17:57:00,
2013-03-10 13:02:00,55.4,52.8,29.88,NW,321,4.0,16.0,91,0.06,,---,0.06,VWS V14.01,2013-03-10 18:02:00,
2013-03-10 13:12:00,54.7,52.7,29.89,WNW,295,2.0,10.0,93,0.07,,---,0.07,VWS V14.01,2013-03-10 18:12:00,
2013-03-10 13:17:00,54.5,52.5,29.89,NNW,348,4.0,15.0,93,0.08,,---,0.08,VWS V14.01,2013-03-10 18:17:00,
2013-03-10 13:22:00,54.6,52.9,29.89,NNW,344,3.0,15.0,94,0.08,,---,0.08,VWS V14.01,2013-03-10 18:22:00,
2013-03-10 13:27:00,54.6,52.9,29.89,NNE,19,1.0,15.0,94,0.09,,---,0.09,VWS V14.01,2013-03-10 18:27:00,
2013-03-10 13:32:00,54.6,52.9,29.89,NNW,340,3.0,15.0,94,0.09,,---,0.09,VWS V14.01,2013-03-10 18:32:00,
2013-03-10 13:36:00,54.6,52.9,29.90,WNW,302,1.0,15.0,94,0.09,,---,0.09,VWS V14.01,2013-03-10 18:36:00,
2013-03-10 13:37:00,54.5,52.8,29.90,NW,308,0.0,1.0,94,0.09,,---,0.09,VWS V14.01,2013-03-10 18:37:00,
2013-03-10 13:42:00,54.7,53.0,29.90,West,279,3.0,5.0,94,0.09,,---,0.09,VWS V14.01,2013-03-10 18:42:00,
2013-03-10 13:47:00,54.8,53.4,29.89,West,275,2.0,5.0,95,0.09,,---,0.09,VWS V14.01,2013-03-10 18:47:00,
2013-03-10 13:52:00,54.8,53.1,29.89,WNW,300,1.0,5.0,94,0.09,,---,0.09,VWS V14.01,2013-03-10 18:52:00,
2013-03-10 13:57:00,54.9,53.5,29.89,WNW,291,1.0,5.0,95,0.09,,---,0.09,VWS V14.01,2013-03-10 18:57:00,
2013-03-10 14:02:00,54.9,53.5,29.88,NNW,344,2.0,5.0,95,0.09,,---,0.09,VWS V14.01,2013-03-10 19:02:00,
2013-03-10 14:07:00,54.9,53.5,29.88,NW,306,3.0,5.0,95,0.02,,---,0.09,VWS V14.01,2013-03-10 19:07:00,
2013-03-10 14:12:00,55.0,53.6,29.88,WNW,290,1.0,5.0,95,0.03,,---,0.10,VWS V14.01,2013-03-10 19:12:00,
2013-03-10 14:17:00,55.1,53.7,29.88,WNW,298,0.0,5.0,95,0.03,,---,0.10,VWS V14.01,2013-03-10 19:17:00,
2013-03-10 14:22:00,55.1,53.7,29.88,WNW,300,1.0,5.0,95,0.03,,---,0.10,VWS V14.01,2013-03-10 19:22:00,
2013-03-10 14:27:00,55.3,53.9,29.88,NW,313,2.0,5.0,95,0.03,,---,0.10,VWS V14.01,2013-03-10 19:27:00,
2013-03-10 14:32:00,55.2,53.8,29.88,West,279,3.0,5.0,95,0.03,,---,0.10,VWS V14.01,2013-03-10 19:32:00,
2013-03-10 14:36:00,55.0,53.6,29.88,WSW,254,0.0,5.0,95,0.03,,---,0.10,VWS V14.01,2013-03-10 19:36:00,
2013-03-10 14:37:00,55.0,53.6,29.87,West,263,0.0,2.0,95,0.01,,---,0.10,VWS V14.01,2013-03-10 19:37:00,
2013-03-10 14:42:00,54.9,53.5,29.87,ENE,71,1.0,4.0,95,0.01,,---,0.10,VWS V14.01,2013-03-10 19:42:00,
2013-03-10 14:47:00,55.3,54.2,29.87,ENE,71,0.0,4.0,96,0.02,,---,0.11,VWS V14.01,2013-03-10 19:47:00,
2013-03-10 14:52:00,55.2,53.8,29.87,North,355,3.0,4.0,95,0.02,,---,0.11,VWS V14.01,2013-03-10 19:52:00,
2013-03-10 14:57:00,55.0,53.6,29.88,WNW,295,0.0,6.0,95,0.02,,---,0.11,VWS V14.01,2013-03-10 19:57:00,
2013-03-10 15:02:00,55.1,53.7,29.88,NNW,329,1.0,6.0,95,0.02,,---,0.11,VWS V14.01,2013-03-10 20:02:00,
2013-03-10 15:07:00,55.4,54.3,29.87,North,355,0.0,2.0,96,0.02,,---,0.11,VWS V14.01,2013-03-10 20:07:00,
2013-03-10 15:12:00,55.5,54.4,29.88,North,355,0.0,2.0,96,0.02,,---,0.11,VWS V14.01,2013-03-10 20:12:00,
2013-03-10 15:18:00,55.5,54.1,29.88,WNW,294,3.0,3.0,95,0.02,,---,0.11,VWS V14.01,2013-03-10 20:18:00,
2013-03-10 15:23:00,55.5,54.1,29.87,WNW,292,0.0,4.0,95,0.02,,---,0.11,VWS V14.01,2013-03-10 20:23:00,
2013-03-10 15:33:00,55.8,54.4,29.87,NW,319,2.0,4.0,95,0.02,,---,0.11,VWS V14.01,2013-03-10 20:33:00,
2013-03-10 15:36:00,55.6,54.2,29.87,NW,319,0.0,4.0,95,0.02,,---,0.11,VWS V14.01,2013-03-10 20:36:00,
2013-03-10 15:38:00,55.5,54.1,29.87,NW,319,2.0,3.0,95,0.01,,---,0.11,VWS V14.01,2013-03-10 20:38:00,
2013-03-10 15:43:00,55.5,54.1,29.87,NW,307,2.0,5.0,95,0.01,,---,0.11,VWS V14.01,2013-03-10 20:43:00,
2013-03-10 15:48:00,55.7,54.6,29.86,North,5,0.0,5.0,96,0.01,,---,0.11,VWS V14.01,2013-03-10 20:48:00,
2013-03-10 15:53:00,55.7,54.3,29.87,NW,305,1.0,5.0,95,0.01,,---,0.11,VWS V14.01,2013-03-10 20:53:00,
2013-03-10 15:58:00,55.6,54.2,29.87,West,279,0.0,5.0,95,0.02,,---,0.12,VWS V14.01,2013-03-10 20:58:00,
2013-03-10 16:03:00,55.7,54.6,29.87,WNW,293,1.0,5.0,96,0.02,,---,0.12,VWS V14.01,2013-03-10 21:03:00,
2013-03-10 16:06:00,55.4,54.0,29.87,WNW,293,2.0,5.0,95,0.02,,---,0.12,VWS V14.01,2013-03-10 21:06:00,
2013-03-10 16:08:00,55.4,54.0,29.87,WNW,284,2.0,4.0,95,0.01,,---,0.12,VWS V14.01,2013-03-10 21:08:00,
2013-03-10 16:13:00,55.5,54.4,29.86,NNE,30,0.0,4.0,96,0.01,,---,0.12,VWS V14.01,2013-03-10 21:13:00,
2013-03-10 16:18:00,55.6,54.2,29.86,NNE,30,1.0,4.0,95,0.01,,---,0.12,VWS V14.01,2013-03-10 21:18:00,
2013-03-10 16:23:00,55.6,54.2,29.86,NW,317,0.0,4.0,95,0.01,,---,0.12,VWS V14.01,2013-03-10 21:23:00,
2013-03-10 16:28:00,55.7,54.3,29.86,NW,317,0.0,4.0,95,0.01,,---,0.12,VWS V14.01,2013-03-10 21:28:00,
2013-03-10 16:33:00,55.5,54.4,29.87,NW,317,0.0,4.0,96,0.01,,---,0.12,VWS V14.01,2013-03-10 21:33:00,
2013-03-10 16:38:00,55.6,54.5,29.87,NW,317,0.0,0.0,96,0.01,,---,0.12,VWS V14.01,2013-03-10 21:38:00,
2013-03-10 16:43:00,55.5,54.1,29.87,NW,317,0.0,2.0,95,0.01,,---,0.12,VWS V14.01,2013-03-10 21:43:00,
2013-03-10 16:48:00,55.5,54.1,29.86,NW,317,0.0,2.0,95,0.01,,---,0.12,VWS V14.01,2013-03-10 21:48:00,
2013-03-10 16:53:00,55.5,54.1,29.86,WNW,293,2.0,4.0,95,0.01,,---,0.12,VWS V14.01,2013-03-10 21:53:00,
2013-03-10 16:58:00,55.5,54.1,29.86,NW,306,0.0,4.0,95,0.01,,---,0.12,VWS V14.01,2013-03-10 21:58:00,
2013-03-10 17:03:00,55.5,54.1,29.86,NNW,336,0.0,4.0,95,0.01,,---,0.12,VWS V14.01,2013-03-10 22:03:00,
2013-03-10 17:08:00,55.5,54.1,29.86,ENE,72,0.0,0.0,95,0.00,,---,0.12,VWS V14.01,2013-03-10 22:08:00,
2013-03-10 17:13:00,55.6,54.2,29.86,ENE,72,0.0,1.0,95,0.00,,---,0.12,VWS V14.01,2013-03-10 22:13:00,
2013-03-10 17:18:00,55.6,54.2,29.86,ENE,72,0.0,1.0,95,0.00,,---,0.12,VWS V14.01,2013-03-10 22:18:00,
2013-03-10 17:23:00,55.6,54.2,29.86,ENE,72,0.0,2.0,95,0.00,,---,0.12,VWS V14.01,2013-03-10 22:23:00,
2013-03-10 17:28:00,55.5,54.1,29.86,ENE,72,0.0,2.0,95,0.00,,---,0.12,VWS V14.01,2013-03-10 22:28:00,
2013-03-10 17:33:00,55.6,54.2,29.86,ENE,72,0.0,2.0,95,0.00,,---,0.12,VWS V14.01,2013-03-10 22:33:00,
2013-03-10 17:36:00,55.7,54.3,29.86,ENE,72,0.0,2.0,95,0.00,,---,0.12,VWS V14.01,2013-03-10 22:36:00,
2013-03-10 17:43:00,55.5,53.8,29.86,ENE,72,0.0,1.0,94,0.00,,---,0.12,VWS V14.01,2013-03-10 22:43:00,
2013-03-10 17:48:00,55.6,54.2,29.86,ENE,73,0.0,1.0,95,0.00,,---,0.12,VWS V14.01,2013-03-10 22:48:00,
2013-03-10 17:54:00,55.5,53.8,29.85,NE,54,0.0,1.0,94,0.00,,---,0.12,VWS V14.01,2013-03-10 22:54:00,
2013-03-10 17:59:00,55.6,54.2,29.85,NE,54,0.0,1.0,95,0.00,,---,0.12,VWS V14.01,2013-03-10 22:59:00,
2013-03-10 18:04:00,55.6,54.2,29.85,NE,54,0.0,1.0,95,0.00,,---,0.12,VWS V14.01,2013-03-10 23:04:00,
2013-03-10 18:09:00,55.5,54.1,29.86,NE,54,0.0,2.0,95,0.00,,---,0.12,VWS V14.01,2013-03-10 23:09:00,
2013-03-10 18:14:00,55.7,54.3,29.88,NE,54,0.0,2.0,95,0.00,,---,0.12,VWS V14.01,2013-03-10 23:14:00,
2013-03-10 18:19:00,55.6,54.2,29.87,NE,54,0.0,2.0,95,0.00,,---,0.12,VWS V14.01,2013-03-10 23:19:00,
2013-03-10 18:24:00,55.6,54.2,29.87,NE,54,0.0,2.0,95,0.01,,---,0.13,VWS V14.01,2013-03-10 23:24:00,
2013-03-10 18:29:00,55.6,54.2,29.86,NE,54,0.0,2.0,95,0.01,,---,0.13,VWS V14.01,2013-03-10 23:29:00,
2013-03-10 18:34:00,55.6,54.2,29.86,NE,54,0.0,2.0,95,0.01,,---,0.13,VWS V14.01,2013-03-10 23:34:00,
2013-03-10 18:36:00,55.4,54.0,29.86,NE,54,0.0,2.0,95,0.01,,---,0.13,VWS V14.01,2013-03-10 23:36:00,
2013-03-10 18:39:00,55.3,53.9,29.87,NE,54,0.0,0.0,95,0.01,,---,0.13,VWS V14.01,2013-03-10 23:39:00,
2013-03-10 18:44:00,55.1,53.7,29.87,NE,54,0.0,0.0,95,0.01,,---,0.13,VWS V14.01,2013-03-10 23:44:00,
2013-03-10 18:49:00,55.0,53.6,29.86,NE,54,0.0,0.0,95,0.01,,---,0.13,VWS V14.01,2013-03-10 23:49:00,
2013-03-10 18:54:00,54.9,53.5,29.87,NE,54,0.0,0.0,95,0.01,,---,0.13,VWS V14.01,2013-03-10 23:54:00,
2013-03-10 18:59:00,54.9,53.8,29.87,NE,54,0.0,0.0,96,0.01,,---,0.13,VWS V14.01,2013-03-10 23:59:00,
2013-03-10 19:04:00,54.9,53.8,29.87,NE,54,0.0,0.0,96,0.01,,---,0.13,VWS V14.01,2013-03-11 00:04:00,
2013-03-10 19:06:00,55.0,53.9,29.87,NE,54,0.0,0.0,96,0.01,,---,0.13,VWS V14.01,2013-03-11 00:06:00,
2013-03-10 19:09:00,55.0,53.9,29.87,NE,54,0.0,0.0,96,0.01,,---,0.13,VWS V14.01,2013-03-11 00:09:00,
2013-03-10 19:14:00,55.1,54.0,29.87,NE,54,0.0,0.0,96,0.01,,---,0.13,VWS V14.01,2013-03-11 00:14:00,
2013-03-10 19:19:00,55.1,54.0,29.87,NE,54,0.0,0.0,96,0.01,,---,0.13,VWS V14.01,2013-03-11 00:19:00,
2013-03-10 19:24:00,55.1,54.0,29.88,NE,54,0.0,0.0,96,0.01,,---,0.13,VWS V14.01,2013-03-11 00:24:00,
2013-03-10 19:29:00,55.0,53.9,29.88,NE,54,0.0,0.0,96,0.01,,---,0.13,VWS V14.01,2013-03-11 00:29:00,
2013-03-10 19:34:00,55.1,54.0,29.89,NE,54,0.0,0.0,96,0.01,,---,0.13,VWS V14.01,2013-03-11 00:34:00,
2013-03-10 19:36:00,55.1,54.0,29.89,NE,54,0.0,0.0,96,0.01,,---,0.13,VWS V14.01,2013-03-11 00:36:00,
2013-03-10 19:44:00,55.0,53.9,29.88,NE,54,0.0,0.0,96,0.00,,---,0.13,VWS V14.01,2013-03-11 00:44:00,
2013-03-10 19:49:00,55.0,54.2,29.88,NE,54,0.0,0.0,97,0.00,,---,0.13,VWS V14.01,2013-03-11 00:49:00,
2013-03-10 19:54:00,55.0,54.2,29.89,NE,54,0.0,0.0,97,0.00,,---,0.13,VWS V14.01,2013-03-11 00:54:00,
2013-03-10 19:59:00,55.0,54.2,29.89,NE,54,0.0,0.0,97,0.00,,---,0.13,VWS V14.01,2013-03-11 00:59:00,
2013-03-10 20:04:00,55.0,54.2,29.89,NE,54,0.0,0.0,97,0.00,,---,0.13,VWS V14.01,2013-03-11 01:04:00,
2013-03-10 20:09:00,55.0,54.2,29.90,NE,54,0.0,0.0,97,0.00,,---,0.13,VWS V14.01,2013-03-11 01:09:00,
2013-03-10 20:14:00,54.9,54.1,29.89,NE,54,0.0,0.0,97,0.00,,---,0.13,VWS V14.01,2013-03-11 01:14:00,
2013-03-10 20:19:00,54.8,54.0,29.89,NE,54,0.0,0.0,97,0.00,,---,0.13,VWS V14.01,2013-03-11 01:19:00,
2013-03-10 20:24:00,54.8,54.0,29.90,NE,54,0.0,0.0,97,0.00,,---,0.13,VWS V14.01,2013-03-11 01:24:00,
2013-03-10 20:29:00,54.7,53.9,29.90,NE,54,0.0,0.0,97,0.00,,---,0.13,VWS V14.01,2013-03-11 01:29:00,
2013-03-10 20:34:00,54.7,53.9,29.90,NE,54,0.0,0.0,97,0.00,,---,0.13,VWS V14.01,2013-03-11 01:34:00,
2013-03-10 20:39:00,54.8,54.0,29.90,NE,54,0.0,0.0,97,0.00,,---,0.13,VWS V14.01,2013-03-11 01:39:00,
2013-03-10 20:44:00,54.8,54.0,29.90,NE,54,0.0,0.0,97,0.00,,---,0.13,VWS V14.01,2013-03-11 01:44:00,
2013-03-10 20:49:00,54.7,53.9,29.90,NE,54,0.0,0.0,97,0.00,,---,0.13,VWS V14.01,2013-03-11 01:49:00,
2013-03-10 20:54:00,54.6,53.8,29.91,NE,54,0.0,0.0,97,0.00,,---,0.13,VWS V14.01,2013-03-11 01:54:00,
2013-03-10 20:59:00,54.6,53.8,29.91,NE,54,0.0,0.0,97,0.00,,---,0.13,VWS V14.01,2013-03-11 01:59:00,
2013-03-10 21:04:00,54.6,53.8,29.91,NE,54,0.0,0.0,97,0.00,,---,0.13,VWS V14.01,2013-03-11 02:04:00,
2013-03-10 21:06:00,54.6,53.8,29.91,NE,54,0.0,0.0,97,0.00,,---,0.13,VWS V14.01,2013-03-11 02:06:00,
2013-03-10 21:09:00,54.7,53.9,29.91,NE,54,0.0,0.0,97,0.00,,---,0.13,VWS V14.01,2013-03-11 02:09:00,
2013-03-10 21:14:00,54.6,53.8,29.92,NE,54,0.0,0.0,97,0.00,,---,0.13,VWS V14.01,2013-03-11 02:14:00,
2013-03-10 21:20:00,54.6,53.8,29.91,NE,54,0.0,0.0,97,0.00,,---,0.13,VWS V14.01,2013-03-11 02:20:00,
2013-03-10 21:25:00,54.6,53.8,29.92,NE,54,0.0,0.0,97,0.00,,---,0.13,VWS V14.01,2013-03-11 02:25:00,
2013-03-10 21:30:00,54.7,53.9,29.92,NE,54,0.0,0.0,97,0.00,,---,0.13,VWS V14.01,2013-03-11 02:30:00,
2013-03-10 21:35:00,54.7,53.9,29.92,NE,54,0.0,0.0,97,0.00,,---,0.13,VWS V14.01,2013-03-11 02:35:00,
2013-03-10 21:40:00,54.6,53.8,29.92,NE,54,0.0,0.0,97,0.00,,---,0.13,VWS V14.01,2013-03-11 02:40:00,
2013-03-10 21:45:00,54.5,53.7,29.92,NE,54,0.0,0.0,97,0.00,,---,0.13,VWS V14.01,2013-03-11 02:45:00,
2013-03-10 21:50:00,54.5,53.7,29.93,NE,54,0.0,0.0,97,0.00,,---,0.13,VWS V14.01,2013-03-11 02:50:00,
2013-03-10 21:55:00,54.3,53.5,29.93,NE,54,0.0,1.0,97,0.00,,---,0.13,VWS V14.01,2013-03-11 02:55:00,
2013-03-10 22:00:00,54.2,53.4,29.93,NE,52,0.0,2.0,97,0.00,,---,0.13,VWS V14.01,2013-03-11 03:00:00,
2013-03-10 22:05:00,54.1,53.3,29.93,North,355,1.0,2.0,97,0.00,,---,0.13,VWS V14.01,2013-03-11 03:05:00,
2013-03-10 22:06:00,54.1,53.3,29.93,North,355,0.0,2.0,97,0.00,,---,0.13,VWS V14.01,2013-03-11 03:06:00,
2013-03-10 22:15:00,54.1,53.3,29.93,North,355,0.0,1.0,97,0.00,,---,0.13,VWS V14.01,2013-03-11 03:15:00,
2013-03-10 22:20:00,54.1,53.3,29.94,North,355,0.0,1.0,97,0.00,,---,0.13,VWS V14.01,2013-03-11 03:20:00,
2013-03-10 22:25:00,54.0,53.2,29.94,West,267,0.0,1.0,97,0.00,,---,0.13,VWS V14.01,2013-03-11 03:25:00,
2013-03-10 22:30:00,54.0,53.2,29.94,West,267,1.0,2.0,97,0.00,,---,0.13,VWS V14.01,2013-03-11 03:30:00,
2013-03-10 22:35:00,54.0,53.2,29.95,West,267,0.0,3.0,97,0.00,,---,0.13,VWS V14.01,2013-03-11 03:35:00,
2013-03-10 22:36:00,54.0,53.2,29.95,West,267,0.0,3.0,97,0.00,,---,0.13,VWS V14.01,2013-03-11 03:36:00,
2013-03-10 22:45:00,53.9,53.1,29.95,West,267,0.0,2.0,97,0.00,,---,0.13,VWS V14.01,2013-03-11 03:45:00,
2013-03-10 22:50:00,53.9,53.1,29.95,West,267,0.0,2.0,97,0.00,,---,0.13,VWS V14.01,2013-03-11 03:50:00,
2013-03-10 22:55:00,53.9,53.1,29.96,West,267,1.0,2.0,97,0.00,,---,0.13,VWS V14.01,2013-03-11 03:55:00,
2013-03-10 23:00:00,53.9,53.1,29.96,WNW,283,2.0,3.0,97,0.00,,---,0.13,VWS V14.01,2013-03-11 04:00:00,
2013-03-10 23:05:00,53.7,52.9,29.97,WSW,242,5.0,9.0,97,0.01,,---,0.14,VWS V14.01,2013-03-11 04:05:00,
2013-03-10 23:10:00,52.1,50.7,29.98,WNW,297,3.0,14.0,95,0.01,,---,0.14,VWS V14.01,2013-03-11 04:10:00,
2013-03-10 23:15:00,51.4,49.7,29.98,NW,308,3.0,14.0,94,0.01,,---,0.14,VWS V14.01,2013-03-11 04:15:00,
2013-03-10 23:20:00,51.4,48.9,29.98,WNW,298,0.0,14.0,91,0.01,,---,0.14,VWS V14.01,2013-03-11 04:20:00,
2013-03-10 23:25:00,51.5,48.1,29.98,NNW,336,1.0,14.0,88,0.01,,---,0.14,VWS V14.01,2013-03-11 04:25:00,
2013-03-10 23:30:00,51.4,47.4,29.98,NNW,336,3.0,14.0,86,0.01,,---,0.14,VWS V14.01,2013-03-11 04:30:00,
2013-03-10 23:35:00,51.3,46.6,29.98,WNW,283,1.0,14.0,84,0.01,,---,0.14,VWS V14.01,2013-03-11 04:35:00,
2013-03-10 23:40:00,51.2,46.2,29.97,WSW,257,3.0,9.0,83,0.01,,---,0.14,VWS V14.01,2013-03-11 04:40:00,
2013-03-10 23:45:00,50.9,45.6,29.97,NW,306,8.0,10.0,82,0.01,,---,0.14,VWS V14.01,2013-03-11 04:45:00,
2013-03-10 23:50:00,50.7,45.1,29.97,WNW,286,5.0,12.0,81,0.01,,---,0.14,VWS V14.01,2013-03-11 04:50:00,
2013-03-10 23:55:00,50.6,44.7,29.97,West,274,1.0,13.0,80,0.01,,---,0.14,VWS V14.01,2013-03-11 04:55:00,